• In Hungary
  • List of Countries
  • For 7 days
  • Water Temperature
  • Satellite Maps
  • Weather Map
  • News
  • Weather Widgets
  • user-avatar
    Login

    Hourly Weather Potosi

    Today, 23 February, Friday

    Time Temperature Precipitation Wind Pressure Humidity
    00:00 +4°C° 0 mm 2 mps 467 mmHg 80%
    01:00 +4°C° 0 mm 2 mps 467 mmHg 81%
    02:00 +4°C° 0 mm 2 mps 467 mmHg 82%
    03:00 +5°C° 0 mm 1 mps 466 mmHg 83%
    04:00 +5°C° 0 mm 1 mps 466 mmHg 83%
    05:00 +4°C° 0 mm 1 mps 466 mmHg 84%
    06:00 +5°C° 0 mm 1 mps 466 mmHg 81%
    07:00 +5°C° 0 mm 1 mps 467 mmHg 77%
    08:00 +6°C° 0 mm 1 mps 467 mmHg 72%
    09:00 +7°C° 0 mm 1 mps 468 mmHg 66%
    10:00 +8°C° 0 mm 2 mps 469 mmHg 59%
    11:00 +9°C° 0 mm 2 mps 469 mmHg 53%
    12:00 +10°C° 0.1 mm 3 mps 469 mmHg 53%
    13:00 +11°C° 0.1 mm 4 mps 469 mmHg 52%
    14:00 +10°C° 0.1 mm 5 mps 469 mmHg 52%
    15:00 +10°C° 0.7 mm 5 mps 468 mmHg 56%
    16:00 +9°C° 0.7 mm 5 mps 468 mmHg 60%
    17:00 +8°C° 0.7 mm 5 mps 467 mmHg 64%
    18:00 +7°C° 0.7 mm 4 mps 467 mmHg 68%
    19:00 +7°C° 0.7 mm 4 mps 466 mmHg 72%
    20:00 +7°C° 0.7 mm 3 mps 466 mmHg 76%
    21:00 +5°C° 0.3 mm 3 mps 467 mmHg 78%
    22:00 +5°C° 0.3 mm 3 mps 467 mmHg 80%
    23:00 +5°C° 0.3 mm 3 mps 467 mmHg 81%

    Tomorrow, 24 February, Saturday

    Time Temperature Precipitation Wind Pressure Humidity
    00:00 +4°C° 0.1 mm 3 mps 467 mmHg 82%
    01:00 +4°C° 0.1 mm 3 mps 467 mmHg 83%
    02:00 +5°C° 0.1 mm 2 mps 466 mmHg 83%
    03:00 +5°C° 0.1 mm 2 mps 466 mmHg 84%
    04:00 +4°C° 0.1 mm 2 mps 466 mmHg 85%
    05:00 +4°C° 0.1 mm 2 mps 466 mmHg 85%
    06:00 +4°C° 0.3 mm 2 mps 466 mmHg 84%
    07:00 +5°C° 0.3 mm 2 mps 466 mmHg 83%
    08:00 +5°C° 0.3 mm 2 mps 467 mmHg 81%
    09:00 +6°C° 0.3 mm 2 mps 467 mmHg 76%
    10:00 +7°C° 0.3 mm 2 mps 468 mmHg 70%
    11:00 +8°C° 0.3 mm 2 mps 469 mmHg 65%
    12:00 +9°C° 0.3 mm 3 mps 469 mmHg 61%
    13:00 +10°C° 0.3 mm 3 mps 469 mmHg 57%
    14:00 +11°C° 0.3 mm 4 mps 470 mmHg 53%
    15:00 +9°C° 0.3 mm 5 mps 469 mmHg 56%
    16:00 +8°C° 0.3 mm 5 mps 468 mmHg 59%
    17:00 +8°C° 0.3 mm 5 mps 468 mmHg 62%
    18:00 +7°C° 0.1 mm 5 mps 468 mmHg 65%
    19:00 +6°C° 0.1 mm 4 mps 468 mmHg 67%
    20:00 +6°C° 0.1 mm 4 mps 468 mmHg 70%
    21:00 +5°C° 0 mm 4 mps 468 mmHg 72%
    22:00 +5°C° 0 mm 3 mps 468 mmHg 73%
    23:00 +4°C° 0 mm 3 mps 468 mmHg 75%

    Day after tomorrow, 25 February, Sunday

    Time Temperature Precipitation Wind Pressure Humidity
    00:00 +4°C° 0 mm 3 mps 468 mmHg 76%
    01:00 +4°C° 0 mm 2 mps 467 mmHg 78%
    02:00 +4°C° 0 mm 2 mps 467 mmHg 79%
    03:00 +4°C° 0 mm 2 mps 466 mmHg 80%
    04:00 +4°C° 0 mm 1 mps 466 mmHg 80%
    05:00 +4°C° 0 mm 1 mps 466 mmHg 81%
    06:00 +5°C° 0 mm 1 mps 467 mmHg 79%
    07:00 +5°C° 0 mm 1 mps 467 mmHg 77%
    08:00 +5°C° 0 mm 1 mps 467 mmHg 75%
    09:00 +7°C° 0 mm 1 mps 468 mmHg 68%
    10:00 +7°C° 0 mm 2 mps 469 mmHg 62%
    11:00 +9°C° 0 mm 3 mps 470 mmHg 55%
    12:00 +9°C° 0 mm 3 mps 470 mmHg 54%
    13:00 +10°C° 0 mm 4 mps 470 mmHg 52%
    14:00 +10°C° 0 mm 5 mps 470 mmHg 51%
    15:00 +9°C° 0.1 mm 5 mps 469 mmHg 53%
    16:00 +9°C° 0.1 mm 5 mps 469 mmHg 56%
    17:00 +9°C° 0.1 mm 5 mps 468 mmHg 58%
    18:00 +8°C° 0 mm 4 mps 468 mmHg 63%
    19:00 +7°C° 0 mm 4 mps 468 mmHg 68%
    20:00 +7°C° 0 mm 3 mps 468 mmHg 72%
    21:00 +7°C° 0 mm 3 mps 468 mmHg 74%
    22:00 +5°C° 0 mm 3 mps 468 mmHg 77%
    23:00 +5°C° 0 mm 3 mps 468 mmHg 79%

    26 February, Monday

    Time Temperature Precipitation Wind Pressure Humidity
    00:00 +4°C° 0 mm 3 mps 468 mmHg 80%
    01:00 +5°C° 0 mm 2 mps 467 mmHg 81%
    02:00 +5°C° 0 mm 2 mps 467 mmHg 82%
    03:00 +5°C° 0 mm 2 mps 467 mmHg 82%
    04:00 +5°C° 0 mm 2 mps 467 mmHg 82%
    05:00 +4°C° 0 mm 2 mps 466 mmHg 82%
    06:00 +5°C° 0 mm 2 mps 467 mmHg 80%
    07:00 +5°C° 0 mm 2 mps 467 mmHg 79%
    08:00 +5°C° 0 mm 2 mps 467 mmHg 77%
    09:00 +6°C° 0 mm 2 mps 468 mmHg 72%
    10:00 +7°C° 0 mm 2 mps 468 mmHg 67%
    11:00 +8°C° 0 mm 3 mps 469 mmHg 62%
    12:00 +9°C° 0 mm 3 mps 469 mmHg 60%
    13:00 +9°C° 0 mm 3 mps 469 mmHg 58%
    14:00 +10°C° 0 mm 4 mps 468 mmHg 56%
    15:00 +10°C° 0.3 mm 4 mps 468 mmHg 58%
    16:00 +10°C° 0.3 mm 4 mps 467 mmHg 59%
    17:00 +10°C° 0.3 mm 4 mps 467 mmHg 61%
    18:00 +9°C° 0.3 mm 3 mps 467 mmHg 65%
    19:00 +8°C° 0.3 mm 3 mps 467 mmHg 70%
    20:00 +7°C° 0.3 mm 3 mps 467 mmHg 75%
    21:00 +7°C° 0.1 mm 3 mps 467 mmHg 78%
    22:00 +5°C° 0.1 mm 3 mps 467 mmHg 81%
    23:00 +5°C° 0.1 mm 3 mps 467 mmHg 83%

    27 February, Tuesday

    Time Temperature Precipitation Wind Pressure Humidity
    00:00 +6°C° 0.2 mm 2 mps 467 mmHg 84%
    01:00 +6°C° 0.2 mm 2 mps 466 mmHg 85%
    02:00 +6°C° 0.2 mm 2 mps 466 mmHg 86%
    03:00 +5°C° 0.2 mm 2 mps 466 mmHg 86%
    04:00 +5°C° 0.2 mm 2 mps 465 mmHg 87%
    05:00 +5°C° 0.2 mm 2 mps 465 mmHg 87%
    06:00 +5°C° 0.4 mm 2 mps 466 mmHg 87%
    07:00 +5°C° 0.4 mm 2 mps 466 mmHg 86%
    08:00 +5°C° 0.4 mm 2 mps 466 mmHg 85%
    09:00 +6°C° 0.3 mm 2 mps 467 mmHg 81%
    10:00 +7°C° 0.3 mm 2 mps 467 mmHg 77%
    11:00 +8°C° 0.3 mm 2 mps 468 mmHg 73%
    12:00 +8°C° 0.4 mm 3 mps 468 mmHg 69%
    13:00 +9°C° 0.4 mm 3 mps 468 mmHg 65%
    14:00 +10°C° 0.4 mm 3 mps 467 mmHg 62%
    15:00 +10°C° 1 mm 3 mps 467 mmHg 62%
    16:00 +10°C° 1 mm 3 mps 467 mmHg 63%
    17:00 +10°C° 1 mm 3 mps 466 mmHg 64%
    18:00 +9°C° 1.3 mm 3 mps 466 mmHg 69%
    19:00 +8°C° 1.3 mm 3 mps 466 mmHg 75%
    20:00 +8°C° 1.3 mm 3 mps 466 mmHg 80%
    21:00 +7°C° 0.8 mm 3 mps 466 mmHg 81%
    22:00 +7°C° 0.8 mm 2 mps 467 mmHg 83%
    23:00 +7°C° 0.8 mm 2 mps 467 mmHg 84%

    28 February, Wednesday

    Time Temperature Precipitation Wind Pressure Humidity
    00:00 +7°C° 0.2 mm 2 mps 466 mmHg 85%
    01:00 +6°C° 0.2 mm 2 mps 466 mmHg 86%
    02:00 +6°C° 0.2 mm 2 mps 466 mmHg 87%
    03:00 +6°C° 0.1 mm 2 mps 466 mmHg 87%
    04:00 +7°C° 0.1 mm 1 mps 466 mmHg 88%
    05:00 +7°C° 0.1 mm 1 mps 466 mmHg 88%
    06:00 +6°C° 0.1 mm 2 mps 466 mmHg 87%
    07:00 +6°C° 0.1 mm 2 mps 466 mmHg 86%
    08:00 +6°C° 0.1 mm 2 mps 467 mmHg 84%
    09:00 +7°C° 0.3 mm 2 mps 467 mmHg 80%
    10:00 +8°C° 0.3 mm 3 mps 468 mmHg 75%
    11:00 +9°C° 0.3 mm 3 mps 468 mmHg 70%
    12:00 +9°C° 0.6 mm 3 mps 468 mmHg 67%
    13:00 +10°C° 0.6 mm 3 mps 468 mmHg 63%
    14:00 +11°C° 0.6 mm 4 mps 468 mmHg 60%
    15:00 +10°C° 1.1 mm 4 mps 467 mmHg 62%
    16:00 +10°C° 1.1 mm 4 mps 467 mmHg 64%
    17:00 +10°C° 1.1 mm 4 mps 466 mmHg 67%
    18:00 +9°C° 1.3 mm 3 mps 466 mmHg 72%
    19:00 +8°C° 1.3 mm 3 mps 466 mmHg 77%
    20:00 +7°C° 1.3 mm 2 mps 466 mmHg 82%
    21:00 +7°C° 0.9 mm 2 mps 466 mmHg 83%
    22:00 +7°C° 0.9 mm 2 mps 467 mmHg 85%
    23:00 +6°C° 0.9 mm 2 mps 467 mmHg 86%
    Show more